N8YZF Weather Reports


Display with metric or nautical units.
time (UTC)temp
F
wind
direction
speed
MPH
gust
MPH
rain 1hr
in
rain 24hr
in
rain mn
in
humidity
%
barometer
mb
20260504225859 72 226 7.0 14.0 0.00 0.00 0.00 34 994.1
20260504225359 72 211 5.0 18.0 0.00 0.00 0.00 33 994.1
20260504224857 72 201 5.0 18.0 0.00 0.00 0.00 34 994.1
20260504224354 72 273 7.0 15.0 0.00 0.00 0.00 35 994.3
20260504223838 72 234 6.0 15.0 0.00 0.00 0.00 34 994.3
20260504223339 72 220 7.0 16.0 0.00 0.00 0.00 34 994.3
20260504222814 72 194 8.0 16.0 0.00 0.00 0.00 33 994.3
20260504222308 72 214 10.0 20.0 0.00 0.00 0.00 34 994.3
20260504221807 72 158 11.0 20.0 0.00 0.00 0.00 33 994.3
20260504221307 72 245 9.0 20.0 0.00 0.00 0.00 33 994.5
20260504220808 72 192 8.0 21.0 0.00 0.00 0.00 33 994.5
20260504220307 72 221 8.0 21.0 0.00 0.00 0.00 33 994.5
20260504215808 72 227 9.0 21.0 0.00 0.00 0.00 34 994.6
20260504215419 72 203 9.0 24.0 0.00 0.00 0.00 32 994.6
20260504215353 72 219 9.0 24.0 0.00 0.00 0.00 34 994.6
20260504214302 72 212 9.0 20.0 0.00 0.00 0.00 33 994.9
20260504213803 72 242 9.0 20.0 0.00 0.00 0.00 32 994.9
20260504213302 72 212 7.0 20.0 0.00 0.00 0.00 32 994.9
20260504212800 73 219 6.0 19.0 0.00 0.00 0.00 32 995.0
20260504212315 73 257 6.0 12.0 0.00 0.00 0.00 33 995.0
20260504212109 73 269 7.0 18.0 0.00 0.00 0.00 32 995.0
20260504211301 72 333 9.0 18.0 0.00 0.00 0.00 31 995.0
20260504210759 72 243 9.0 21.0 0.00 0.00 0.00 31 995.0
20260504210257 72 169 8.0 21.0 0.00 0.00 0.00 30 995.0
20260504205755 72 194 8.0 19.0 0.00 0.00 0.00 31 995.4
20260504205255 72 222 9.0 23.0 0.00 0.00 0.00 29 995.4
20260504204752 72 244 8.0 23.0 0.00 0.00 0.00 31 995.4
20260504204251 72 207 9.0 23.0 0.00 0.00 0.00 28 995.3
20260504203755 72 189 8.0 23.0 0.00 0.00 0.00 30 995.3
20260504203251 72 233 7.0 15.0 0.00 0.00 0.00 29 995.3
20260504202752 73 211 8.0 19.0 0.00 0.00 0.00 28 995.5
20260504202603 73 209 9.0 19.0 0.00 0.00 0.00 28 995.5
20260504202053 72 198 11.0 20.0 0.00 0.00 0.00 28 995.5
20260504201251 73 235 10.0 23.0 0.00 0.00 0.00 27 995.6
20260504200750 73 221 8.0 23.0 0.00 0.00 0.00 27 995.6
20260504200247 73 236 9.0 20.0 0.00 0.00 0.00 27 995.6
20260504195748 73 244 9.0 23.0 0.00 0.00 0.00 27 995.5
20260504195247 73 234 8.0 23.0 0.00 0.00 0.00 26 995.6
20260504194745 74 219 8.0 17.0 0.00 0.00 0.00 26 995.6
20260504194245 73 229 8.0 16.0 0.00 0.00 0.00 26 995.9
20260504193744 74 174 7.0 16.0 0.00 0.00 0.00 27 995.9
20260504193245 73 285 8.0 18.0 0.00 0.00 0.00 26 995.9
20260504192732 73 245 9.0 22.0 0.00 0.00 0.00 26 995.9
20260504192215 73 255 9.0 22.0 0.00 0.00 0.00 25 995.9
20260504191714 73 236 8.0 20.0 0.00 0.00 0.00 26 995.9
20260504191332 73 257 9.0 24.0 0.00 0.00 0.00 25 996.0
20260504191305 73 184 8.0 19.0 0.00 0.00 0.00 25 996.0
20260504190212 73 269 10.0 24.0 0.00 0.00 0.00 26 996.0
20260504185712 73 292 8.0 18.0 0.00 0.00 0.00 26 996.1
20260504185519 74 220 8.0 24.0 0.00 0.00 0.00 26 996.2
20260504184712 74 262 8.0 24.0 0.00 0.00 0.00 27 996.2
20260504184210 73 221 9.0 22.0 0.00 0.00 0.00 29 996.2
20260504183831 73 163 10.0 20.0 0.00 0.00 0.00 27 996.1
20260504183802 73 216 9.0 19.0 0.00 0.00 0.00 26 996.1
20260504182707 73 223 9.0 20.0 0.00 0.00 0.00 25 996.1
20260504182206 73 247 8.0 19.0 0.00 0.00 0.00 27 996.2
20260504181706 73 194 8.0 28.0 0.00 0.00 0.00 27 996.1
20260504181205 73 167 10.0 28.0 0.00 0.00 0.00 26 996.2
20260504180702 72 188 10.0 21.0 0.00 0.00 0.00 26 996.2
20260504180201 72 229 11.0 22.0 0.00 0.00 0.00 26 996.2
20260504175702 72 248 10.0 22.0 0.00 0.00 0.00 25 996.8
20260504175520 72 329 10.0 21.0 0.00 0.00 0.00 26 996.9
20260504174704 72 344 10.0 21.0 0.00 0.00 0.00 26 996.9
20260504174202 72 231 9.0 21.0 0.00 0.00 0.00 28 996.5
20260504173659 72 265 10.0 30.0 0.00 0.00 0.00 29 996.3
20260504173200 71 281 9.0 30.0 0.00 0.00 0.00 28 996.3
20260504172659 71 217 10.0 19.0 0.00 0.00 0.00 29 996.7
20260504172506 71 221 10.0 21.0 0.00 0.00 0.00 29 996.7
20260504171655 71 253 10.0 21.0 0.00 0.00 0.00 29 996.7
20260504171324 71 184 9.0 18.0 0.00 0.00 0.00 31 996.9
20260504171246 71 240 10.0 18.0 0.00 0.00 0.00 30 996.9
20260504170154 71 297 8.0 18.0 0.00 0.00 0.00 32 996.9
20260504160125 69 236 8.0 18.0 0.00 0.00 0.00 35 997.5
20260504151102 67 220 7.0 18.0 0.00 0.00 0.00 41 998.2
20260504150603 66 219 6.0 18.0 0.00 0.00 0.00 43 998.1
20260504150117 66 194 6.0 14.0 0.00 0.00 0.00 45 998.1
20260504141054 62 202 5.0 11.0 0.00 0.00 0.00 55 998.5
20260504140554 61 212 4.0 11.0 0.00 0.00 0.00 55 998.5
20260504140217 60 169 4.0 8.0 0.00 0.00 0.00 59 998.7
20260504140143 61 180 4.0 8.0 0.00 0.00 0.00 58 998.4
20260504130806 54 217 4.0 11.0 0.00 0.00 0.00 73 998.7
20260504130311 54 217 4.0 9.0 0.00 0.00 0.00 76 998.7
20260504110710 41 106 0.0 0.0 0.00 0.00 0.00 91 997.9
20260504110201 41 106 0.0 0.0 0.00 0.00 0.00 91 998.0
20260504081855 43 150 1.0 2.0 0.00 0.00 0.00 87 999.1
20260504081318 43 150 0.0 4.0 0.00 0.00 0.00 86 999.3
20260504080818 43 150 0.0 4.0 0.00 0.00 0.00 86 999.3
20260504080317 44 148 0.0 2.0 0.00 0.00 0.00 85 999.3
20260504045805 49 195 2.0 5.0 0.00 0.00 0.00 77 1001.1
20260504045307 49 160 2.0 5.0 0.00 0.00 0.00 77 1001.1
20260504044803 49 202 3.0 5.0 0.00 0.00 0.00 77 1001.1
20260504044303 49 248 3.0 6.0 0.00 0.00 0.00 76 1001.2
20260504043803 49 228 3.0 6.0 0.00 0.00 0.00 76 1001.2
20260504043302 49 191 3.0 7.0 0.00 0.00 0.00 75 1001.2
20260504042803 49 187 4.0 7.0 0.00 0.00 0.00 75 1001.4
20260504042304 49 192 3.0 7.0 0.00 0.00 0.00 75 1001.4
20260504041759 49 172 4.0 7.0 0.00 0.00 0.00 75 1001.4
20260504041541 49 187 4.0 7.0 0.00 0.00 0.00 74 1001.6
20260504040740 49 167 4.0 7.0 0.00 0.00 0.00 74 1001.6
20260504040238 49 178 3.0 6.0 0.00 0.00 0.00 74 1001.6
20260504040024 49 172 2.0 6.0 0.00 0.00 0.00 74 1001.8
20260504035216 49 139 2.0 6.0 0.00 0.00 0.00 74 1001.8
20260504034710 49 196 2.0 5.0 0.00 0.00 0.00 74 1001.8
20260504034204 49 139 2.0 7.0 0.00 0.00 0.00 73 1002.1
20260504033650 49 107 2.0 7.0 0.00 0.00 0.00 73 1002.1
20260504033148 49 109 3.0 5.0 0.00 0.00 0.00 72 1002.1
20260504032647 50 98 2.0 7.0 0.00 0.00 0.00 72 1002.2
20260504032129 50 82 2.0 7.0 0.00 0.00 0.00 72 1002.2
20260504031611 50 150 2.0 5.0 0.00 0.00 0.00 71 1002.3
20260504031112 50 117 1.0 4.0 0.00 0.00 0.00 71 1002.7
20260504030607 50 54 2.0 5.0 0.00 0.00 0.00 70 1002.8
20260504030110 51 37 2.0 5.0 0.00 0.00 0.00 69 1002.8
20260504025604 51 60 2.0 5.0 0.00 0.00 0.00 68 1002.1
20260504025102 51 217 2.0 5.0 0.00 0.00 0.00 68 1002.1
20260504024601 51 130 3.0 7.0 0.00 0.00 0.00 68 1002.2
20260504024104 51 233 4.0 10.0 0.00 0.00 0.00 68 1002.3
20260504023914 52 200 4.0 10.0 0.00 0.00 0.00 67 1002.3
20260504023404 52 201 4.0 8.0 0.00 0.00 0.00 67 1002.3
20260504022559 52 172 4.0 8.0 0.00 0.00 0.00 67 1002.2
20260504022052 52 197 3.0 8.0 0.00 0.00 0.00 66 1002.2
20260504021553 52 232 3.0 6.0 0.00 0.00 0.00 66 1002.2
20260504021047 52 169 3.0 8.0 0.00 0.00 0.00 66 1002.1
20260504020548 52 230 3.0 8.0 0.00 0.00 0.00 65 1002.1
20260504020055 53 227 4.0 7.0 0.00 0.00 0.00 65 1002.1
20260504015538 53 179 4.0 10.0 0.00 0.00 0.00 65 1002.2
20260504015037 53 199 5.0 10.0 0.00 0.00 0.00 64 1002.3
20260504014512 53 199 4.0 9.0 0.00 0.00 0.00 64 1002.3
20260504014010 53 221 3.0 6.0 0.00 0.00 0.00 64 1002.4
20260504013507 53 167 3.0 6.0 0.00 0.00 0.00 63 1002.5
20260504013009 53 219 4.0 9.0 0.00 0.00 0.00 63 1002.5
20260504012504 53 189 5.0 10.0 0.00 0.00 0.00 62 1002.5
20260504012005 53 225 5.0 10.0 0.00 0.00 0.00 62 1002.5
20260504011504 54 210 5.0 9.0 0.00 0.00 0.00 62 1002.5
20260504011010 54 185 4.0 10.0 0.00 0.00 0.00 62 1002.5
20260504010818 54 236 4.0 10.0 0.00 0.00 0.00 61 1002.5
20260504010001 54 182 5.0 11.0 0.00 0.00 0.00 61 1002.4
20260504005502 54 192 5.0 11.0 0.00 0.00 0.00 61 1002.4
20260504005001 54 232 5.0 10.0 0.00 0.00 0.00 61 1002.5
20260504004459 54 151 5.0 10.0 0.00 0.00 0.00 60 1002.5
20260504003958 54 221 5.0 11.0 0.00 0.00 0.00 60 1002.5
20260504003502 54 214 4.0 11.0 0.00 0.00 0.00 60 1002.5
20260504003304 54 249 4.0 8.0 0.00 0.00 0.00 60 1002.6
20260504002459 55 165 4.0 7.0 0.00 0.00 0.00 60 1002.7
20260504001956 55 228 4.0 8.0 0.00 0.00 0.00 60 1002.7
20260504001454 55 198 4.0 8.0 0.00 0.00 0.00 59 1002.7
20260504000954 55 188 5.0 15.0 0.00 0.00 0.00 58 1002.7
20260504000453 55 225 6.0 15.0 0.00 0.00 0.00 57 1002.7
20260504000303 56 178 6.0 12.0 0.00 0.00 0.00 57 1002.7
20260503235455 56 259 4.0 11.0 0.00 0.00 0.00 56 1002.7
20260503235301 56 206 4.0 11.0 0.00 0.00 0.00 56 1002.8
20260503234452 56 169 5.0 11.0 0.00 0.00 0.00 56 1002.8
20260503234304 56 190 5.0 11.0 0.00 0.00 0.00 55 1002.8
20260503233451 56 217 5.0 11.0 0.00 0.00 0.00 56 1002.8
20260503232949 56 217 5.0 11.0 0.00 0.00 0.00 55 1002.8
20260503232809 56 215 6.0 16.0 0.00 0.00 0.00 55 1002.9
20260503231950 56 208 7.0 16.0 0.00 0.00 0.00 55 1002.8
20260503231449 56 202 8.0 18.0 0.00 0.00 0.00 54 1003.4
20260503230948 56 209 8.0 18.0 0.00 0.00 0.00 54 1003.4
20260503230445 56 229 8.0 18.0 0.00 0.00 0.00 53 1003.4